"Pseudo-MPEC" for P22mlMi

Created 2026 Mar 18 15:35:28 UT using Find_Orb

Click here for an explanation of pseudo-MPECs

 
 Astrometry: 
     P22mlMi*0C2026 03 06.24763407 23 03.983+35 30 51.24   ~36D5 20.99wXNEOCPF52
     P22mlMi 0C2026 03 06.25868107 23 05.030+35 32 34.04   ~36DK 21.33GVNEOCPF52
     P22mlMi 0C2026 03 06.28083907 23 07.133+35 35 59.77   ~36D5 21.18wXNEOCPF52

Station data:
(F52) Pan-STARRS 2, Haleakala  (N20.707382 W156.255910)  US/Hawaii.
   Observers J. Herman, T. Lowe, P. Minguez, A. Schultz, I. Smith. Measurers
   K. Chambers, T. de Boer, J. Fairlamb, H. Gao, M. Huber, C.-C. Lin, E.
   Magnier, Y. Ramanjooloo, R. Wainscoat, R. Weryk. 1.8-m Ritchey-Chrétien +
   CCD.

Orbital elements:  P22mlMi
   Perihelion 2025 Dec 22.501473 +/- 40.6 TT = 12:02:07.2 (JD 2461032.001473)
Epoch 2026 Mar  6.0 TT = JDT 2461105.5   Earth MOID: 0.0529   Me: 0.0261
M  92.483982828 +/- 50              (J2000 ecliptic)             AutoNEOCP
n   1.258310698 +/- 0.726           Peri.  217.218103 +/- 70
a   0.849723162 +/- 0.327           Node   157.216990 +/- 17
e   0.54424614 +/- 0.25             Incl.   55.726150 +/- 32
P   0.783/286.092d         H 23.14  G  0.15   U 12.5  SR
q 0.387264608 +/- 0.358    Q 1.312181715 +/- 21.1
From 3 observations 2026 Mar. 6 (47.8 min); mean residual 0".08
Residuals in arcseconds: 
260306 F52  .03+  .09+    260306 F52  .04-  .14-    260306 F52  .01+  .05+    

Ephemerides (geocentric):
Date (UTC) HH   RA             Dec           delta  r     elong  mag " sig PA
---- --------  ------------   ------------  ------ ------ -----  --- --------
2026 03 18 16  07 42 06.932   +49 13 25.63  .35506 1.1574 108.4 23.2  22d  74
2026 03 18 17  07 42 10.299   +49 14 31.33  .35575 1.1576 108.3 23.2  23d  75
2026 03 18 18  07 42 13.666   +49 15 36.73  .35643 1.1578 108.3 23.2  23d  75
2026 03 18 19  07 42 17.033   +49 16 41.84  .35711 1.1581 108.3 23.2  23d  75
2026 03 18 20  07 42 20.399   +49 17 46.66  .35779 1.1583 108.2 23.2  23d  75
2026 03 18 21  07 42 23.765   +49 18 51.18  .35847 1.1585 108.2 23.2  23d  75
2026 03 18 22  07 42 27.131   +49 19 55.42  .35916 1.1588 108.2 23.2  23d  75
2026 03 18 23  07 42 30.496   +49 20 59.37  .35984 1.1590 108.1 23.2  23d  75
2026 03 19 00  07 42 33.861   +49 22 03.03  .36052 1.1592 108.1 23.2  23d  75
2026 03 19 01  07 42 37.226   +49 23 06.41  .36120 1.1595 108.1 23.2  23d  75
2026 03 19 02  07 42 40.590   +49 24 09.51  .36189 1.1597 108.0 23.2  23d  75
2026 03 19 03  07 42 43.955   +49 25 12.33  .36257 1.1599 108.0 23.3  23d  76
2026 03 19 04  07 42 47.319   +49 26 14.86  .36325 1.1601 108.0 23.3  23d  76
2026 03 19 05  07 42 50.682   +49 27 17.12  .36393 1.1604 107.9 23.3  23d  76
2026 03 19 06  07 42 54.046   +49 28 19.10  .36462 1.1606 107.9 23.3  23d  76
2026 03 19 07  07 42 57.409   +49 29 20.81  .36530 1.1608 107.9 23.3  23d  76
2026 03 19 08  07 43 00.772   +49 30 22.24  .36598 1.1611 107.8 23.3  23d  76
2026 03 19 09  07 43 04.135   +49 31 23.40  .36666 1.1613 107.8 23.3  23d  76
2026 03 19 10  07 43 07.498   +49 32 24.29  .36734 1.1615 107.8 23.3  23d  76
2026 03 19 11  07 43 10.861   +49 33 24.91  .36803 1.1618 107.7 23.3  23d  76
2026 03 19 12  07 43 14.223   +49 34 25.27  .36871 1.1620 107.7 23.3  23d  76
2026 03 19 13  07 43 17.586   +49 35 25.36  .36939 1.1622 107.7 23.3  23d  76
2026 03 19 14  07 43 20.948   +49 36 25.18  .37007 1.1624 107.6 23.3  24d  76
2026 03 19 15  07 43 24.310   +49 37 24.74  .37075 1.1627 107.6 23.3  24d  76
2026 03 19 16  07 43 27.672   +49 38 24.04  .37144 1.1629 107.5 23.3  24d  76
2026 03 19 17  07 43 31.034   +49 39 23.07  .37212 1.1631 107.5 23.3  24d  76
2026 03 19 18  07 43 34.396   +49 40 21.85  .37280 1.1633 107.5 23.3  24d  76
2026 03 19 19  07 43 37.758   +49 41 20.37  .37348 1.1636 107.4 23.3  24d  76
2026 03 19 20  07 43 41.120   +49 42 18.64  .37416 1.1638 107.4 23.3  24d  77
2026 03 19 21  07 43 44.482   +49 43 16.65  .37485 1.1640 107.4 23.3  24d  77
2026 03 19 22  07 43 47.843   +49 44 14.40  .37553 1.1643 107.3 23.3  24d  77
2026 03 19 23  07 43 51.205   +49 45 11.90  .37621 1.1645 107.3 23.3  24d  77
2026 03 20 00  07 43 54.567   +49 46 09.16  .37689 1.1647 107.3 23.3  24d  77
2026 03 20 01  07 43 57.928   +49 47 06.16  .37757 1.1649 107.2 23.4  24d  77
2026 03 20 02  07 44 01.290   +49 48 02.92  .37826 1.1652 107.2 23.4  24d  77
2026 03 20 03  07 44 04.652   +49 48 59.42  .37894 1.1654 107.2 23.4  24d  77
2026 03 20 04  07 44 08.013   +49 49 55.69  .37962 1.1656 107.1 23.4  24d  77
2026 03 20 05  07 44 11.375   +49 50 51.70  .38030 1.1658 107.1 23.4  24d  77
2026 03 20 06  07 44 14.737   +49 51 47.48  .38098 1.1661 107.1 23.4  24d  77
2026 03 20 07  07 44 18.099   +49 52 43.01  .38166 1.1663 107.0 23.4  24d  77
2026 03 20 08  07 44 21.461   +49 53 38.31  .38235 1.1665 107.0 23.4  24d  77
2026 03 20 09  07 44 24.823   +49 54 33.36  .38303 1.1667 107.0 23.4  24d  77
2026 03 20 10  07 44 28.185   +49 55 28.18  .38371 1.1670 107.0 23.4  24d  77
2026 03 20 11  07 44 31.547   +49 56 22.75  .38439 1.1672 106.9 23.4  24d  77
2026 03 20 12  07 44 34.910   +49 57 17.10  .38507 1.1674 106.9 23.4  24d  77
2026 03 20 13  07 44 38.272   +49 58 11.21  .38575 1.1676 106.9 23.4  24d  77
2026 03 20 14  07 44 41.635   +49 59 05.08  .38644 1.1679 106.8 23.4  24d  77
2026 03 20 15  07 44 44.998   +49 59 58.73  .38712 1.1681 106.8 23.4  24d  77